User: anonymous   Login
Location: Caltech
(34.1382°N, 118.1253°W)
Time: 08:21:19
(UTC-08:00)
Language:

IRS-1A Rocket - Orbit

View from above orbital plane
View from above orbital plane
View from above satellite
View from above satellite

Ground track
Ground track

The orbit data is extracted from the following two-line orbital elements,

1 18961U 88021B   18055.53933205 -.00000235  00000-0 -12464-3 0  9995
2 18961  99.3262  73.9359 0053510 256.0025 215.8727 14.00704504530744
Epoch (UTC): 24 February 2018 12:56:38
Eccentricity: 0.0053510
inclination: 99.3262°
perigee height: 852 km
apogee height: 930 km
right ascension of ascending node: 73.9359°
argument of perigee: 256.0025°
revolutions per day: 14.00704504
mean anomaly at epoch: 215.8727°
orbit number at epoch: 53074

The dashed part of the orbit path shows where the satellite is in the earth's shadow,  

DLR